EW8262 Weather Reports


Display with metric or nautical units.
time (UTC)temp
F
wind
direction
speed
MPH
gust
MPH
rain 1hr
in
rain 24hr
in
rain mn
in
humidity
%
barometer
mb
20260504034516 54 270 1.0 3.0 0.00 0.00 0.00 48 1001.4
20260504033616 55 0.0 0.0 0.00 0.00 0.00 46 1001.7
20260504032515 55 0.0 0.0 0.00 0.00 0.00 46 1001.8
20260504031535 55 0.0 2.0 0.00 0.00 0.00 45 1002.0
20260504030515 55 270 1.0 3.0 0.00 0.00 0.00 45 1002.2
20260504025516 56 0.0 2.0 0.00 0.00 0.00 44 1002.3
20260504024516 57 0.0 0.0 0.00 0.00 0.00 43 1002.2
20260504023535 58 0.0 0.0 0.00 0.00 0.00 40 1002.4
20260504022516 59 0.0 0.0 0.00 0.00 0.00 38 1002.5
20260504021515 60 0.0 0.0 0.00 0.00 0.00 38 1002.5
20260504020515 61 0.0 0.0 0.00 0.00 0.00 37 1002.5
20260504015515 61 0.0 0.0 0.00 0.00 0.00 36 1002.4
20260504014536 62 0.0 2.0 0.00 0.00 0.00 35 1002.3
20260504013515 63 270 1.0 3.0 0.00 0.00 0.00 35 1002.4
20260504012515 64 0.0 2.0 0.00 0.00 0.00 34 1002.5
20260504011515 64 270 1.0 2.0 0.00 0.00 0.00 32 1002.3
20260504010515 65 0.0 0.0 0.00 0.00 0.00 31 1002.4
20260504005515 66 0.0 1.0 0.00 0.00 0.00 30 1002.4
20260504004515 67 270 1.0 4.0 0.00 0.00 0.00 30 1002.5
20260504003515 67 270 1.0 2.0 0.00 0.00 0.00 29 1002.4
20260504002515 67 0.0 1.0 0.00 0.00 0.00 31 1002.6
20260504001515 67 293 2.0 7.0 0.00 0.00 0.00 29 1002.7
20260504000515 67 270 2.0 4.0 0.00 0.00 0.00 30 1002.7
20260503235517 68 270 1.0 3.0 0.00 0.00 0.00 28 1002.6
20260503234537 69 293 1.0 6.0 0.00 0.00 0.00 27 1002.7
20260503233517 70 293 2.0 6.0 0.00 0.00 0.00 26 1002.6
20260503232517 70 293 3.0 10.0 0.00 0.00 0.00 26 1002.7
20260503231537 71 293 2.0 5.0 0.00 0.00 0.00 28 1003.0
20260503230517 71 293 3.0 8.0 0.00 0.00 0.00 27 1003.0
20260503225537 70 293 2.0 8.0 0.00 0.00 0.00 27 1003.0
20260503224517 70 293 3.0 7.0 0.00 0.00 0.00 26 1003.1
20260503223517 71 293 3.0 9.0 0.00 0.00 0.00 26 1003.3
20260503222517 70 315 2.0 5.0 0.00 0.00 0.00 28 1003.3
20260503221518 70 293 3.0 9.0 0.00 0.00 0.00 27 1003.4
20260503220537 70 293 4.0 9.0 0.00 0.00 0.00 26 1003.4
20260503215517 70 270 4.0 12.0 0.00 0.00 0.00 27 1003.5
20260503214517 71 293 4.0 10.0 0.00 0.00 0.00 25 1003.7
20260503213517 71 293 4.0 10.0 0.00 0.00 0.00 26 1003.8
20260503212537 71 315 3.0 8.0 0.00 0.00 0.00 26 1003.8
20260503211517 71 293 3.0 7.0 0.00 0.00 0.00 27 1004.0
20260503210517 71 293 3.0 9.0 0.00 0.00 0.00 27 1004.0
20260503205517 71 293 3.0 8.0 0.00 0.00 0.00 25 1004.2
20260503204517 70 338 4.0 9.0 0.00 0.00 0.00 27 1004.4
20260503203517 70 338 4.0 11.0 0.00 0.00 0.00 24 1004.4
20260503202517 70 293 3.0 7.0 0.00 0.00 0.00 25 1004.4
20260503201517 70 315 3.0 8.0 0.00 0.00 0.00 26 1004.6
20260503200517 69 338 4.0 13.0 0.00 0.00 0.00 25 1004.7
20260503195517 69 315 5.0 13.0 0.00 0.00 0.00 24 1004.7
20260503194517 69 338 5.0 10.0 0.00 0.00 0.00 23 1004.8
20260503193517 69 315 5.0 11.0 0.00 0.00 0.00 24 1004.7
20260503192517 70 338 5.0 14.0 0.00 0.00 0.00 26 1005.0
20260503191517 70 338 4.0 10.0 0.00 0.00 0.00 31 1004.8
20260503190517 69 315 4.0 11.0 0.00 0.00 0.00 31 1004.9
20260503185517 69 293 5.0 11.0 0.00 0.00 0.00 30 1005.0
20260503184537 69 293 4.0 12.0 0.00 0.00 0.00 28 1005.1
20260503183517 69 338 3.0 8.0 0.00 0.00 0.00 32 1005.1
20260503182517 68 315 3.0 9.0 0.00 0.00 0.00 35 1005.2
20260503181517 68 293 4.0 10.0 0.00 0.00 0.00 32 1005.4
20260503180516 68 338 5.0 11.0 0.00 0.00 0.00 34 1005.4
20260503175516 67 338 4.0 13.0 0.00 0.00 0.00 35 1005.5
20260503174517 67 338 4.0 15.0 0.00 0.00 0.00 37 1005.6
20260503173517 67 338 5.0 10.0 0.00 0.00 0.00 40 1005.6
20260503172517 67 338 4.0 14.0 0.00 0.00 0.00 41 1005.6
20260503171538 67 338 6.0 15.0 0.00 0.00 0.00 40 1005.8
20260503170516 68 315 5.0 10.0 0.00 0.00 0.00 42 1005.7
20260503150537 64 315 2.0 11.0 0.00 0.00 0.00 51 1005.4
20260503130516 51 203 2.0 4.0 0.00 0.00 0.00 71 1004.7
20260503110536 43 0.0 0.0 0.00 0.00 0.00 80 1003.5
20260503081516 53 203 2.0 4.0 0.00 0.00 0.00 59 1004.4
20260503080536 53 203 3.0 5.0 0.00 0.00 0.00 59 1004.6
20260503072516 54 203 3.0 5.0 0.00 0.00 0.00 56 1004.9
20260503071516 54 203 2.0 4.0 0.00 0.00 0.00 56 1005.1
20260503070516 54 203 2.0 4.0 0.00 0.00 0.00 56 1005.3
20260503054516 56 203 2.0 5.0 0.00 0.00 0.00 53 1006.6
20260503053516 56 203 2.0 5.0 0.00 0.00 0.00 53 1006.7
20260503052536 56 203 2.0 4.0 0.00 0.00 0.00 53 1006.8
20260503051516 56 203 2.0 4.0 0.00 0.00 0.00 52 1006.9
20260503050516 57 203 1.0 3.0 0.00 0.00 0.00 52 1007.0
20260503045516 57 203 1.0 3.0 0.00 0.00 0.00 51 1007.1
20260503044516 57 203 1.0 2.0 0.00 0.00 0.00 50 1007.3
20260503043515 57 203 1.0 2.0 0.00 0.00 0.00 49 1007.4
20260503042516 57 203 1.0 3.0 0.00 0.00 0.00 49 1007.4
20260503041535 58 203 2.0 5.0 0.00 0.00 0.00 49 1007.6
20260503040515 58 203 1.0 2.0 0.00 0.00 0.00 48 1007.9
20260503035515 58 203 1.0 4.0 0.00 0.00 0.00 48 1007.8